| time (UTC) | temp F | wind direction | speed MPH | gust MPH | rain 1hr in | rain 24hr in | rain mn in | humidity % | barometer mb |
| 20260502123004 | 41 | 87 | 0.0 | 2.0 | 0.00 | 0.08 | 0.00 | 72 | 1017.5 |
| 20260502121503 | 40 | 17 | 0.0 | 1.0 | 0.00 | 0.08 | 0.00 | 75 | 1017.3 |
| 20260502114504 | 38 | 13 | 0.0 | 0.0 | 0.00 | 0.08 | 0.00 | 81 | 1017.0 |
| 20260502113004 | 38 | 13 | 0.0 | 0.0 | 0.00 | 0.08 | 0.00 | 83 | 1016.9 |
| 20260502110004 | 38 | 13 | 0.0 | 0.0 | 0.00 | 0.08 | 0.00 | 85 | 1016.7 |
| 20260502104504 | 38 | 13 | 0.0 | 0.0 | 0.00 | 0.08 | 0.00 | 86 | 1016.7 |
| 20260502103003 | 38 | 13 | 0.0 | 0.0 | 0.00 | 0.08 | 0.00 | 86 | 1016.8 |
| 20260502071504 | 38 | 13 | 0.0 | 0.0 | 0.00 | 0.08 | 0.00 | 84 | 1016.4 |
| 20260502064504 | 39 | 13 | 0.0 | 0.0 | 0.00 | 0.08 | 0.00 | 83 | 1016.7 |
| 20260502063004 | 39 | 13 | 0.0 | 0.0 | 0.00 | 0.08 | 0.00 | 82 | 1016.8 |
| 20260502060003 | 40 | 13 | 0.0 | 0.0 | 0.00 | 0.08 | 0.00 | 82 | 1017.1 |
| 20260502054503 | 40 | 13 | 0.0 | 0.0 | 0.00 | 0.08 | 0.00 | 82 | 1017.1 |
| 20260502053004 | 41 | 13 | 0.0 | 0.0 | 0.00 | 0.08 | 0.00 | 84 | 1017.0 |
| 20260502051503 | 40 | 13 | 0.0 | 0.0 | 0.00 | 0.08 | 0.00 | 86 | 1017.1 |
| 20260502050004 | 40 | 13 | 0.0 | 0.0 | 0.00 | 0.08 | 0.00 | 86 | 1017.0 |
| 20260502044504 | 40 | 13 | 0.0 | 0.0 | 0.00 | 0.08 | 0.00 | 87 | 1017.1 |
| 20260502043003 | 39 | 13 | 0.0 | 0.0 | 0.00 | 0.08 | 0.00 | 86 | 1017.0 |
| 20260502041503 | 40 | 13 | 0.0 | 0.0 | 0.00 | 0.08 | 0.00 | 85 | 1016.9 |
| 20260502040003 | 41 | 13 | 0.0 | 0.0 | 0.00 | 0.08 | 0.00 | 83 | 1017.0 |
| 20260502034503 | 41 | 13 | 0.0 | 0.0 | 0.00 | 0.08 | 0.08 | 82 | 1017.0 |
| 20260502033003 | 42 | 13 | 0.0 | 0.0 | 0.00 | 0.08 | 0.08 | 82 | 1017.0 |
| 20260502031504 | 43 | 13 | 0.0 | 0.0 | 0.00 | 0.08 | 0.08 | 81 | 1016.9 |
| 20260502030004 | 43 | 13 | 0.0 | 0.0 | 0.00 | 0.08 | 0.08 | 79 | 1016.7 |
| 20260502024503 | 44 | 13 | 0.0 | 0.0 | 0.00 | 0.08 | 0.08 | 78 | 1016.8 |
| 20260502023004 | 45 | 13 | 0.0 | 0.0 | 0.00 | 0.08 | 0.08 | 78 | 1016.8 |
| 20260502021503 | 45 | 13 | 0.0 | 0.0 | 0.00 | 0.08 | 0.08 | 79 | 1016.7 |
| 20260502020004 | 45 | 13 | 0.0 | 0.0 | 0.00 | 0.08 | 0.08 | 79 | 1016.4 |
| 20260502014504 | 45 | 13 | 0.0 | 0.0 | 0.00 | 0.08 | 0.08 | 80 | 1016.0 |
| 20260502013004 | 46 | 13 | 0.0 | 0.0 | 0.00 | 0.08 | 0.08 | 79 | 1015.9 |
| 20260502011504 | 46 | 13 | 0.0 | 0.0 | 0.00 | 0.08 | 0.08 | 76 | 1015.6 |
| 20260502010004 | 47 | 13 | 0.0 | 0.0 | 0.00 | 0.08 | 0.08 | 74 | 1015.3 |
| 20260502004503 | 47 | 13 | 0.0 | 0.0 | 0.00 | 0.08 | 0.08 | 72 | 1014.9 |
| 20260502003004 | 49 | 13 | 0.0 | 0.0 | 0.00 | 0.08 | 0.08 | 72 | 1014.6 |
| 20260502000003 | 50 | 51 | 0.0 | 2.0 | 0.00 | 0.08 | 0.08 | 67 | 1014.7 |
| 20260501234504 | 51 | 57 | 1.0 | 5.0 | 0.00 | 0.08 | 0.08 | 64 | 1014.6 |
| 20260501233004 | 51 | 127 | 0.0 | 6.0 | 0.00 | 0.08 | 0.08 | 66 | 1014.6 |
| 20260501231504 | 51 | 276 | 0.0 | 7.0 | 0.00 | 0.08 | 0.08 | 64 | 1014.5 |
| 20260501230004 | 51 | 88 | 0.0 | 2.0 | 0.00 | 0.08 | 0.08 | 63 | 1014.4 |
| 20260501223004 | 51 | 80 | 0.0 | 5.0 | 0.00 | 0.08 | 0.08 | 64 | 1014.6 |
| 20260501221503 | 52 | 92 | 1.0 | 3.0 | 0.00 | 0.08 | 0.08 | 64 | 1014.4 |
| 20260501214504 | 52 | 41 | 1.0 | 7.0 | 0.00 | 0.08 | 0.08 | 65 | 1014.4 |
| 20260501213004 | 51 | 73 | 0.0 | 8.0 | 0.00 | 0.08 | 0.08 | 70 | 1014.6 |
| 20260501211504 | 51 | 38 | 0.0 | 7.0 | 0.00 | 0.08 | 0.08 | 69 | 1014.5 |
| 20260501210004 | 52 | 55 | 1.0 | 7.0 | 0.00 | 0.08 | 0.08 | 69 | 1014.4 |
| 20260501204505 | 52 | 67 | 1.0 | 7.0 | 0.00 | 0.08 | 0.08 | 69 | 1014.3 |
| 20260501203004 | 52 | 28 | 1.0 | 5.0 | 0.00 | 0.08 | 0.08 | 68 | 1014.3 |
| 20260501201504 | 51 | 34 | 1.0 | 9.0 | 0.00 | 0.08 | 0.08 | 70 | 1014.3 |
| 20260501200004 | 52 | 43 | 1.0 | 7.0 | 0.00 | 0.08 | 0.08 | 69 | 1014.3 |
| 20260501194504 | 52 | 54 | 1.0 | 7.0 | 0.00 | 0.08 | 0.08 | 72 | 1014.2 |
| 20260501193004 | 52 | 332 | 1.0 | 12.0 | 0.00 | 0.08 | 0.08 | 71 | 1014.1 |
| 20260501191504 | 53 | 44 | 1.0 | 10.0 | 0.00 | 0.08 | 0.08 | 69 | 1014.2 |
| 20260501184504 | 53 | 51 | 1.0 | 9.0 | 0.00 | 0.08 | 0.08 | 71 | 1013.8 |
| 20260501183004 | 53 | 325 | 2.0 | 10.0 | 0.00 | 0.08 | 0.08 | 70 | 1013.5 |
| 20260501181504 | 53 | 316 | 2.0 | 8.0 | 0.00 | 0.08 | 0.08 | 71 | 1013.4 |
| 20260501180004 | 53 | 125 | 1.0 | 13.0 | 0.00 | 0.08 | 0.08 | 72 | 1013.0 |
| 20260501174504 | 54 | 55 | 2.0 | 8.0 | 0.00 | 0.08 | 0.08 | 71 | 1012.8 |
| 20260501171504 | 55 | 203 | 1.0 | 9.0 | 0.00 | 0.08 | 0.08 | 76 | 1012.4 |
| 20260501170004 | 53 | 326 | 2.0 | 13.0 | 0.00 | 0.08 | 0.08 | 80 | 1012.3 |
| 20260501163004 | 50 | 0 | 1.0 | 7.0 | 0.00 | 0.08 | 0.08 | 87 | 1012.1 |
| 20260501161505 | 49 | 227 | 0.0 | 5.0 | 0.00 | 0.08 | 0.08 | 88 | 1011.9 |
| 20260501160006 | 49 | 244 | 0.0 | 5.0 | 0.00 | 0.08 | 0.08 | 88 | 1011.8 |
| 20260501154503 | 49 | 205 | 0.0 | 1.0 | 0.01 | 0.08 | 0.08 | 89 | 1011.7 |